Weather History for Valladolid Airport, Spain

Change the Weather History Date:

Sunday, March 10, 2013

  Actual Average Record
Temperature  
Mean Temperature 44 °F -  
Max Temperature 50 °F - - ()
Min Temperature 39 °F - - ()
Degree Days  
Heating Degree Days 20    
Moisture  
Dew Point 40 °F    
Average Humidity 88    
Maximum Humidity 100    
Minimum Humidity 66    
Precipitation  
Precipitation 0.00 in - - ()
Sea Level Pressure  
Sea Level Pressure 29.64 in    
Wind  
Wind Speed 14 mph ()    
Max Wind Speed 26 mph    
Max Gust Speed 41 mph    
Visibility 6.1 miles    
Events Rain    
T = Trace of Precipitation, MM = Missing Value Source: Averaged Metar Reports

Daily Weather History Graph

Daily Weather History Graph

Search for Another Location

Airport:

Trip Planner

Search our weather history database for the weather conditions in past years. The results will help you decide how hot, cold, wet, or windy it might be!

Date:

Astronomy

Mar. 10, 2013 Rise Set
Actual Time 7:39 AM CET 7:20 PM CET
Civil Twilight 7:11 AM CET 7:48 PM CET
Nautical Twilight 6:39 AM CET 8:20 PM CET
Astronomical Twilight 6:07 AM CET 8:52 PM CET
Moon 6:32 AM CET (3/10) 6:12 PM CET (3/10)
Length of Visible Light 12h 36m
Length of Day
11h 40m
Waning Crescent, 2% of the Moon is Illuminated
Mar 10
Waning Crescent
Mar 11
New
Mar 19
First Quarter
Mar 27
Full
Apr 3
Last Quarter

Hourly Weather History & Observations

Time (CET) Temp. Windchill Dew Point Humidity Pressure Visibility Wind Dir Wind Speed Gust Speed Precip Events Conditions
12:00 AM 41.0 °F 33.5 °F 39.2 °F 93% 29.65 in 6.2 mi SW 13.8 mph - N/A   Scattered Clouds
12:30 AM 41.0 °F 35.8 °F 39.2 °F 93% 29.65 in 6.2 mi SW 8.1 mph - N/A   Scattered Clouds
1:00 AM 39.2 °F 34.2 °F 39.2 °F 100% 29.65 in 6.2 mi SSW 6.9 mph - N/A   Scattered Clouds
1:30 AM 41.0 °F 34.3 °F 39.2 °F 93% 29.65 in 6.2 mi SSW 11.5 mph - N/A   Scattered Clouds
2:00 AM 41.0 °F 33.5 °F 39.2 °F 93% 29.65 in 6.2 mi SSW 13.8 mph - N/A   Scattered Clouds
2:30 AM 41.0 °F 33.5 °F 39.2 °F 93% 29.62 in 6.2 mi SSW 13.8 mph - N/A   Scattered Clouds
3:00 AM 41.0 °F 34.3 °F 39.2 °F 93% 29.65 in 6.2 mi SW 11.5 mph - N/A   Scattered Clouds
3:30 AM 41.0 °F 33.5 °F 41.0 °F 100% 29.62 in 6.2 mi SW 13.8 mph - N/A   Scattered Clouds
4:00 AM 41.0 °F 33.9 °F 41.0 °F 100% 29.62 in 6.2 mi SSW 12.7 mph - N/A   Scattered Clouds
4:30 AM 41.0 °F 33.9 °F 41.0 °F 100% 29.62 in 6.2 mi SSW 12.7 mph - N/A   Scattered Clouds
5:00 AM 41.0 °F 33.9 °F 39.2 °F 93% 29.59 in 6.2 mi SSW 12.7 mph - N/A   Scattered Clouds
5:30 AM 41.0 °F 33.1 °F 39.2 °F 93% 29.59 in 6.2 mi SSW 15.0 mph - N/A   Scattered Clouds
6:00 AM 41.0 °F 32.8 °F 41.0 °F 100% 29.59 in 6.2 mi SW 16.1 mph - N/A   Scattered Clouds
6:30 AM 41.0 °F 32.8 °F 41.0 °F 100% 29.62 in 6.2 mi SW 16.1 mph - N/A   Scattered Clouds
7:00 AM 41.0 °F 33.5 °F 39.2 °F 93% 29.62 in 6.2 mi SW 13.8 mph - N/A   Mostly Cloudy
7:30 AM 41.0 °F 33.9 °F 39.2 °F 93% 29.62 in 6.2 mi SW 12.7 mph - N/A   Mostly Cloudy
8:00 AM 41.0 °F 33.5 °F 39.2 °F 93% 29.62 in 6.2 mi SW 13.8 mph - N/A   Scattered Clouds
8:30 AM 41.0 °F 33.5 °F 39.2 °F 93% 29.62 in 6.2 mi SW 13.8 mph - N/A   Scattered Clouds
9:00 AM 42.8 °F 35.1 °F 41.0 °F 93% 29.62 in 6.2 mi SW 16.1 mph - N/A   Scattered Clouds
9:30 AM 42.8 °F 34.8 °F 39.2 °F 87% 29.62 in 6.2 mi SW 17.3 mph - N/A   Scattered Clouds
10:00 AM 42.8 °F 34.5 °F 41.0 °F 93% 29.65 in 6.2 mi SW 18.4 mph - N/A   Scattered Clouds
10:30 AM 44.6 °F 36.6 °F 41.0 °F 87% 29.65 in 6.2 mi SW 19.6 mph - N/A   Mostly Cloudy
11:00 AM 44.6 °F 36.1 °F 41.0 °F 87% 29.65 in 6.2 mi SW 21.9 mph - N/A   Mostly Cloudy
11:30 AM 46.4 °F 37.9 °F 41.0 °F 81% 29.65 in 6.2 mi WSW 25.3 mph - N/A   Mostly Cloudy
12:00 PM 48.2 °F - 39.2 °F 71% 29.65 in 6.2 mi WSW 26.5 mph - N/A   Scattered Clouds
12:30 PM 50.0 °F - 39.2 °F 66% 29.65 in 6.2 mi WSW 26.5 mph 38.0 mph N/A   Mostly Cloudy
1:00 PM 48.2 °F - 37.4 °F 66% 29.65 in 6.2 mi WSW 24.2 mph - N/A   Mostly Cloudy
1:30 PM 50.0 °F - 39.2 °F 66% 29.65 in 6.2 mi WSW 24.2 mph - N/A   Mostly Cloudy
2:00 PM 44.6 °F 35.5 °F 41.0 °F 87% 29.65 in 6.2 mi West 25.3 mph 36.8 mph N/A Rain Rain
2:30 PM 48.2 °F - 42.8 °F 82% 29.62 in 6.2 mi West 20.7 mph - N/A   Mostly Cloudy
3:00 PM 50.0 °F - 39.2 °F 66% 29.62 in 6.2 mi West 21.9 mph - N/A   Scattered Clouds
3:30 PM 48.2 °F - 39.2 °F 71% 29.62 in 6.2 mi WSW 19.6 mph - N/A   Scattered Clouds
3:41 PM 42.8 °F 33.8 °F 37.4 °F 81% 29.62 in 3.1 mi West 21.9 mph 33.4 mph N/A Rain Rain Showers
4:00 PM 42.8 °F 34.0 °F 39.2 °F 87% 29.65 in 6.2 mi WSW 20.7 mph 33.4 mph N/A Rain Rain
4:30 PM 46.4 °F 39.8 °F 42.8 °F 87% 29.62 in 6.2 mi WSW 16.1 mph - N/A   Scattered Clouds
5:00 PM 48.2 °F - 41.0 °F 76% 29.62 in 6.2 mi WSW 18.4 mph - N/A   Partly Cloudy
5:30 PM 46.4 °F 39.0 °F 39.2 °F 76% 29.62 in 6.2 mi WSW 19.6 mph 41.4 mph N/A Rain Rain Showers
6:00 PM 42.8 °F 33.5 °F 35.6 °F 76% 29.65 in 6.2 mi West 23.0 mph - N/A Rain Rain Showers
6:30 PM 41.0 °F 32.2 °F 39.2 °F 93% 29.65 in 6.2 mi West 18.4 mph - N/A   Scattered Clouds
7:00 PM 41.0 °F 32.5 °F 39.2 °F 93% 29.65 in 6.2 mi WSW 17.3 mph - N/A   Scattered Clouds
7:30 PM 39.2 °F 30.8 °F 39.2 °F 100% 29.65 in 6.2 mi WSW 15.0 mph - N/A   Scattered Clouds
8:00 PM 39.2 °F 30.5 °F 39.2 °F 100% 29.65 in 6.2 mi WSW 16.1 mph - N/A   Scattered Clouds
8:30 PM 39.2 °F 30.5 °F 39.2 °F 100% 29.68 in 6.2 mi WSW 16.1 mph - N/A   Partly Cloudy
9:00 PM 39.2 °F 30.8 °F 39.2 °F 100% 29.68 in 6.2 mi WSW 15.0 mph - N/A   Partly Cloudy
9:30 PM 39.2 °F 30.8 °F 37.4 °F 93% 29.68 in 6.2 mi WSW 15.0 mph - N/A   Partly Cloudy